Location: Melbourne
(37.8170°S, 144.9670°E)
Time: 14:51:02
(UTC+11:00)

deb Explorer IX - All Passes

Search period start: 09 December 2016 00:00
Search period end: 19 December 2016 00:00
Orbit: 550 x 1123 km, 38.8° (Epoch: 07 December)

Date Brightness Start Highest point End Pass type
(mag) Time Alt. Az. Time Alt. Az. Time Alt. Az.
09 Dec - 00:42:50 10° WNW 00:44:45 12° NW 00:46:45 10° NNW visible
09 Dec - 15:30:47 10° NNE 15:31:46 11° NE 15:32:46 10° NE daylight
09 Dec - 17:14:13 10° NW 17:18:11 45° NNE 17:22:16 10° E daylight
09 Dec - 19:00:55 10° W 19:05:07 81° S 19:09:44 10° E daylight
09 Dec - 20:47:53 10° W 20:52:20 87° NNW 20:57:26 10° ENE daylight
09 Dec - 22:34:57 10° W 22:39:23 36° NNW 22:44:28 10° NE visible
10 Dec - 00:25:42 10° NW 00:26:08 10° NW 00:26:34 10° NNW visible
10 Dec - 15:11:35 10° NNE 15:13:14 12° NE 15:14:50 10° ENE daylight
10 Dec - 16:55:40 10° NW 16:59:42 48° NNE 17:03:46 10° E daylight
10 Dec - 18:42:28 10° W 18:46:39 80° S 18:51:09 10° E daylight
10 Dec - 20:29:28 10° W 20:33:50 84° NNW 20:38:46 10° ENE daylight
10 Dec - 22:16:34 10° W 22:20:49 34° NNW 22:25:39 10° NE visible
11 Dec - 14:52:34 10° N 14:54:40 13° NE 14:56:43 10° ENE daylight
11 Dec - 16:37:06 10° NW 16:41:12 51° NNE 16:45:16 10° E daylight
11 Dec - 18:24:01 10° W 18:28:10 79° S 18:32:34 10° E daylight
11 Dec - 20:11:02 10° W 20:15:19 82° NNW 20:20:08 10° ENE daylight
11 Dec - 21:58:11 10° W 22:02:15 31° NNW 22:06:49 10° NNE visible
12 Dec - 14:33:36 10° N 14:36:07 15° NNE 14:38:32 10° ENE daylight
12 Dec - 16:18:31 10° WNW 16:22:42 54° NNE 16:26:46 10° E daylight
12 Dec - 18:05:31 10° W 18:09:41 78° S 18:14:01 10° E daylight
12 Dec - 19:52:34 10° W 19:56:49 79° NNW 20:01:29 10° ENE daylight
12 Dec - 21:39:48 10° W 21:43:41 28° NNW 21:48:00 10° NNE visible
13 Dec - 14:14:40 10° N 14:17:33 16° NNE 14:20:17 10° ENE daylight
13 Dec - 15:59:55 10° WNW 16:04:11 58° NNE 16:08:16 10° E daylight
13 Dec - 17:47:00 10° W 17:51:11 77° S 17:55:27 10° E daylight
13 Dec - 19:34:06 10° W 19:38:17 76° NNW 19:42:50 10° ENE daylight
13 Dec - 21:21:26 10° W 21:25:07 26° NNW 21:29:09 10° NNE visible
14 Dec - 13:55:45 10° NNW 13:58:58 18° NNE 14:01:59 10° ENE daylight
14 Dec - 15:41:17 10° WNW 15:45:39 61° NNE 15:49:46 10° E daylight
14 Dec - 17:28:28 10° W 17:32:41 77° S 17:36:54 10° E daylight
14 Dec - 19:15:36 10° W 19:19:46 72° NNW 19:24:12 10° ENE daylight
14 Dec - 21:03:02 10° W 21:06:32 23° NNW 21:10:18 10° NNE visible
15 Dec - 13:36:49 10° NNW 13:40:22 20° NNE 13:43:39 10° E daylight
15 Dec - 15:22:37 10° WNW 15:27:06 65° NNE 15:31:16 10° E daylight
15 Dec - 17:09:54 10° W 17:14:10 77° S 17:18:21 10° E daylight
15 Dec - 18:57:05 10° W 19:01:13 69° NNW 19:05:34 10° ENE daylight
15 Dec - 20:44:40 10° W 20:47:57 21° NNW 20:51:27 10° NNE daylight
16 Dec - 13:17:54 10° NNW 13:21:46 22° NNE 13:25:17 10° E daylight
16 Dec - 15:03:56 10° WNW 15:08:34 68° NNE 15:12:46 10° E daylight
16 Dec - 16:51:19 10° W 16:55:38 77° S 16:59:48 10° E daylight
16 Dec - 18:38:33 10° W 18:42:40 65° NNW 18:46:56 10° ENE daylight
16 Dec - 20:26:17 10° WNW 20:29:20 19° NNW 20:32:35 10° NNE daylight
17 Dec - 12:58:58 10° NNW 13:03:08 25° NNE 13:06:53 10° E daylight
17 Dec - 14:45:14 10° WNW 14:49:59 72° NNE 14:54:16 10° E daylight
17 Dec - 16:32:42 10° W 16:37:05 77° S 16:41:16 10° E daylight
17 Dec - 18:19:59 10° W 18:24:07 62° NNW 18:28:18 10° ENE daylight
17 Dec - 20:07:54 10° WNW 20:10:44 18° NNW 20:13:41 10° N daylight
18 Dec - 12:40:02 10° NNW 12:44:30 27° NNE 12:48:28 10° E daylight
18 Dec - 14:26:29 10° WNW 14:31:24 75° NNE 14:35:45 10° E daylight
18 Dec - 16:14:03 10° W 16:18:33 77° S 16:22:43 10° E daylight
18 Dec - 18:01:25 10° W 18:05:34 59° NNW 18:09:40 10° ENE daylight
18 Dec - 19:49:31 10° WNW 19:52:07 16° NNW 19:54:47 10° N daylight
